Terug naar catalogus

METEOR 2-6

ActiefWeerPO
NORAD 11962·PAYLOAD·🇷🇺 Russia

Gelanceerd Sep 9, 1980 vanaf Plesetsk Cosmodrome

Loading…

Volgende Passages (komende 24 uur)

TLE

VersSource: Space-Track

Epoch: Sep 14, 2026, 06:19 UTC

1 11962U 80073A   26257.26369483  .00000209  00000-0  10846-3 0  9993
2 11962  81.2261   2.7708 0034729 245.4394 114.3156 14.11156868367290

Volg METEOR 2-6 in realtime met AllMySat

Download on the App Store